• In Österreich
  • Länderverzeichnis
  • Für 7 Tage
  • Wassertemperatur
  • Satellitenkarten
  • Wetterkarte
  • News
  • Widgets
  • user-avatar
    Anmelden

    Stündliche Wetter Olbani

    Heute, 16 August, Donnerstag

    Zeit Temperatur Niederschläge Wind Luftdruck Luftfeuchtigkeit
    00:00 +23°C° 0 mm 1 m/S 758 mmHg 95%
    01:00 +23°C° 0 mm 1 m/S 759 mmHg 96%
    02:00 +23°C° 0 mm 1 m/S 759 mmHg 96%
    03:00 +22°C° 0 mm 1 m/S 759 mmHg 97%
    04:00 +22°C° 0 mm 1 m/S 759 mmHg 97%
    05:00 +23°C° 0 mm 1 m/S 759 mmHg 95%
    06:00 +24°C° 0 mm 1 m/S 760 mmHg 94%
    07:00 +24°C° 0 mm 2 m/S 760 mmHg 92%
    08:00 +26°C° 0 mm 2 m/S 760 mmHg 85%
    09:00 +28°C° 0 mm 3 m/S 760 mmHg 77%
    10:00 +29°C° 0 mm 3 m/S 760 mmHg 69%
    11:00 +30°C° 0 mm 3 m/S 760 mmHg 64%
    12:00 +31°C° 0 mm 3 m/S 760 mmHg 58%
    13:00 +34°C° 0 mm 4 m/S 760 mmHg 53%
    14:00 +34°C° 0 mm 3 m/S 760 mmHg 53%
    15:00 +34°C° 0 mm 3 m/S 760 mmHg 53%
    16:00 +34°C° 0 mm 3 m/S 759 mmHg 54%
    17:00 +31°C° 0 mm 2 m/S 760 mmHg 63%
    18:00 +29°C° 0 mm 2 m/S 760 mmHg 72%
    19:00 +26°C° 0 mm 1 m/S 760 mmHg 81%
    20:00 +26°C° 0 mm 1 m/S 761 mmHg 84%
    21:00 +25°C° 0 mm 1 m/S 761 mmHg 86%
    22:00 +24°C° 0 mm 1 m/S 761 mmHg 89%
    23:00 +23°C° 0 mm 1 m/S 761 mmHg 89%

    Morgen, 17 August, Freitag

    Zeit Temperatur Niederschläge Wind Luftdruck Luftfeuchtigkeit
    00:00 +23°C° 0 mm 1 m/S 761 mmHg 89%
    01:00 +20°C° 0 mm 0 m/S 761 mmHg 89%
    02:00 +20°C° 0 mm 0 m/S 761 mmHg 89%
    03:00 +20°C° 0 mm 0 m/S 761 mmHg 89%
    04:00 +19°C° 0 mm 0 m/S 761 mmHg 90%
    05:00 +21°C° 0 mm 0 m/S 761 mmHg 87%
    06:00 +22°C° 0 mm 0 m/S 761 mmHg 84%
    07:00 +23°C° 0 mm 0 m/S 761 mmHg 81%
    08:00 +26°C° 0,1 mm 1 m/S 761 mmHg 79%
    09:00 +27°C° 0,1 mm 1 m/S 760 mmHg 77%
    10:00 +29°C° 0,1 mm 2 m/S 760 mmHg 75%
    11:00 +30°C° 0,5 mm 2 m/S 759 mmHg 72%
    12:00 +31°C° 0,5 mm 3 m/S 759 mmHg 69%
    13:00 +34°C° 0,5 mm 4 m/S 758 mmHg 66%
    14:00 +33°C° 0,9 mm 4 m/S 757 mmHg 67%
    15:00 +33°C° 0,9 mm 4 m/S 757 mmHg 68%
    16:00 +32°C° 0,9 mm 4 m/S 756 mmHg 70%
    17:00 +30°C° 0,9 mm 4 m/S 756 mmHg 75%
    18:00 +28°C° 0,9 mm 4 m/S 756 mmHg 80%
    19:00 +26°C° 0,9 mm 3 m/S 756 mmHg 85%
    20:00 +26°C° 0,1 mm 3 m/S 756 mmHg 88%
    21:00 +25°C° 0,1 mm 3 m/S 756 mmHg 90%
    22:00 +25°C° 0,1 mm 2 m/S 756 mmHg 93%
    23:00 +24°C° 0,3 mm 2 m/S 755 mmHg 94%

    übermorgen, 18 August, Samstag

    Zeit Temperatur Niederschläge Wind Luftdruck Luftfeuchtigkeit
    00:00 +24°C° 0,3 mm 2 m/S 755 mmHg 95%
    01:00 +24°C° 0,3 mm 2 m/S 755 mmHg 97%
    02:00 +24°C° 0,7 mm 2 m/S 755 mmHg 97%
    03:00 +24°C° 0,7 mm 2 m/S 754 mmHg 98%
    04:00 +24°C° 0,7 mm 2 m/S 754 mmHg 98%
    05:00 +24°C° 0,7 mm 2 m/S 754 mmHg 98%
    06:00 +24°C° 0,7 mm 2 m/S 754 mmHg 98%
    07:00 +24°C° 0,7 mm 2 m/S 754 mmHg 97%
    08:00 +25°C° 0,2 mm 2 m/S 754 mmHg 91%
    09:00 +26°C° 0,2 mm 3 m/S 754 mmHg 84%
    10:00 +27°C° 0,2 mm 3 m/S 754 mmHg 78%
    11:00 +28°C° 0,1 mm 3 m/S 754 mmHg 75%
    12:00 +28°C° 0,1 mm 3 m/S 754 mmHg 73%
    13:00 +28°C° 0,1 mm 4 m/S 754 mmHg 71%
    14:00 +27°C° 0,1 mm 3 m/S 754 mmHg 74%
    15:00 +26°C° 0,1 mm 3 m/S 754 mmHg 76%
    16:00 +25°C° 0,1 mm 3 m/S 754 mmHg 79%
    17:00 +24°C° 0 mm 3 m/S 755 mmHg 81%
    18:00 +23°C° 0 mm 2 m/S 755 mmHg 83%
    19:00 +21°C° 0 mm 2 m/S 756 mmHg 84%
    20:00 +20°C° 0 mm 2 m/S 756 mmHg 87%
    21:00 +19°C° 0 mm 2 m/S 757 mmHg 90%
    22:00 +19°C° 0 mm 1 m/S 757 mmHg 93%
    23:00 +19°C° 0 mm 1 m/S 757 mmHg 93%

    19 August, Sonntag

    Zeit Temperatur Niederschläge Wind Luftdruck Luftfeuchtigkeit
    00:00 +19°C° 0 mm 1 m/S 757 mmHg 93%
    01:00 +19°C° 0 mm 1 m/S 757 mmHg 93%
    02:00 +19°C° 0 mm 1 m/S 758 mmHg 93%
    03:00 +19°C° 0 mm 1 m/S 758 mmHg 93%
    04:00 +19°C° 0 mm 1 m/S 758 mmHg 93%
    05:00 +20°C° 0 mm 1 m/S 759 mmHg 91%
    06:00 +20°C° 0 mm 1 m/S 759 mmHg 89%
    07:00 +21°C° 0 mm 1 m/S 760 mmHg 87%
    08:00 +23°C° 0 mm 2 m/S 760 mmHg 77%
    09:00 +24°C° 0 mm 2 m/S 760 mmHg 68%
    10:00 +26°C° 0 mm 2 m/S 760 mmHg 58%
    11:00 +27°C° 0 mm 2 m/S 760 mmHg 54%
    12:00 +29°C° 0 mm 2 m/S 760 mmHg 49%
    13:00 +30°C° 0 mm 2 m/S 760 mmHg 45%
    14:00 +30°C° 0 mm 2 m/S 760 mmHg 45%
    15:00 +30°C° 0 mm 1 m/S 760 mmHg 46%
    16:00 +30°C° 0 mm 1 m/S 760 mmHg 47%
    17:00 +28°C° 0 mm 1 m/S 760 mmHg 53%
    18:00 +26°C° 0 mm 1 m/S 760 mmHg 59%
    19:00 +22°C° 0 mm 0 m/S 761 mmHg 66%
    20:00 +23°C° 0 mm 1 m/S 761 mmHg 70%
    21:00 +21°C° 0 mm 1 m/S 762 mmHg 75%
    22:00 +20°C° 0 mm 1 m/S 762 mmHg 79%
    23:00 +20°C° 0 mm 1 m/S 762 mmHg 82%

    20 August, Montag

    Zeit Temperatur Niederschläge Wind Luftdruck Luftfeuchtigkeit
    00:00 +19°C° 0 mm 1 m/S 762 mmHg 86%
    01:00 +18°C° 0 mm 1 m/S 763 mmHg 90%
    02:00 +18°C° 0 mm 1 m/S 763 mmHg 90%
    03:00 +16°C° 0 mm 1 m/S 763 mmHg 91%
    04:00 +15°C° 0 mm 0 m/S 763 mmHg 92%
    05:00 +17°C° 0 mm 0 m/S 763 mmHg 88%
    06:00 +18°C° 0 mm 0 m/S 764 mmHg 83%
    07:00 +19°C° 0 mm 0 m/S 764 mmHg 79%
    08:00 +21°C° 0 mm 0 m/S 764 mmHg 71%
    09:00 +25°C° 0 mm 1 m/S 764 mmHg 64%
    10:00 +28°C° 0 mm 1 m/S 763 mmHg 56%
    11:00 +29°C° 0 mm 1 m/S 763 mmHg 53%
    12:00 +30°C° 0 mm 1 m/S 763 mmHg 49%
    13:00 +31°C° 0 mm 1 m/S 762 mmHg 46%
    14:00 +30°C° 0 mm 1 m/S 762 mmHg 47%
    15:00 +30°C° 0 mm 1 m/S 762 mmHg 48%
    16:00 +30°C° 0 mm 1 m/S 761 mmHg 49%
    17:00 +28°C° 0 mm 1 m/S 762 mmHg 56%
    18:00 +26°C° 0 mm 1 m/S 762 mmHg 63%
    19:00 +24°C° 0 mm 1 m/S 762 mmHg 70%
    20:00 +23°C° 0 mm 1 m/S 762 mmHg 74%
    21:00 +21°C° 0 mm 1 m/S 763 mmHg 78%
    22:00 +20°C° 0 mm 1 m/S 763 mmHg 82%
    23:00 +20°C° 0 mm 1 m/S 763 mmHg 84%

    21 August, Dienstag

    Zeit Temperatur Niederschläge Wind Luftdruck Luftfeuchtigkeit
    00:00 +20°C° 0 mm 1 m/S 763 mmHg 85%
    01:00 +19°C° 0 mm 1 m/S 762 mmHg 87%
    02:00 +19°C° 0 mm 1 m/S 762 mmHg 90%
    03:00 +18°C° 0 mm 1 m/S 762 mmHg 92%
    04:00 +18°C° 0 mm 1 m/S 762 mmHg 95%
    05:00 +19°C° 0 mm 1 m/S 762 mmHg 91%
    06:00 +20°C° 0 mm 1 m/S 762 mmHg 88%
    07:00 +21°C° 0 mm 1 m/S 762 mmHg 84%
    08:00 +24°C° 0 mm 1 m/S 762 mmHg 75%
    09:00 +26°C° 0 mm 1 m/S 762 mmHg 66%
    10:00 +28°C° 0 mm 2 m/S 761 mmHg 56%
    11:00 +29°C° 0 mm 2 m/S 761 mmHg 53%
    12:00 +30°C° 0 mm 2 m/S 760 mmHg 49%
    13:00 +31°C° 0 mm 2 m/S 759 mmHg 45%
    14:00 +31°C° 0 mm 2 m/S 759 mmHg 47%
    15:00 +30°C° 0 mm 2 m/S 759 mmHg 48%
    16:00 +30°C° 0 mm 2 m/S 758 mmHg 50%
    17:00 +28°C° 0 mm 2 m/S 758 mmHg 56%
    18:00 +26°C° 0 mm 2 m/S 758 mmHg 62%
    19:00 +24°C° 0 mm 1 m/S 758 mmHg 69%
    20:00 +24°C° 0 mm 2 m/S 758 mmHg 69%
    21:00 +23°C° 0 mm 2 m/S 758 mmHg 70%
    22:00 +23°C° 0 mm 2 m/S 759 mmHg 71%
    23:00 +21°C° 0,1 mm 2 m/S 758 mmHg 75%
    Mehr zeigen